| time (UTC) | temp C | wind direction | speed KPH | gust KPH | rain 1hr cm | rain 24hr cm | rain mn cm | humidity % | barometer mb |
| 20260505173051 | 11 | 0.0 | 0.0 | 0.00 | 0.00 | 0.00 | 43 | 1012.6 | |
| 20260505171556 | 11 | 0.0 | 0.0 | 0.00 | 0.00 | 0.00 | 40 | 1012.5 | |
| 20260505170055 | 12 | 0.0 | 0.0 | 0.00 | 0.00 | 0.00 | 39 | 1012.6 | |
| 20260505164600 | 12 | 0.0 | 0.0 | 0.00 | 0.00 | 0.00 | 40 | 1012.5 | |
| 20260505163047 | 12 | 0.0 | 0.0 | 0.00 | 0.00 | 0.00 | 39 | 1012.4 | |
| 20260505161603 | 12 | 0.0 | 0.0 | 0.00 | 0.00 | 0.00 | 35 | 1012.5 | |
| 20260505153055 | 13 | 0.0 | 0.0 | 0.00 | 0.00 | 0.00 | 40 | 1012.3 | |
| 20260505151556 | 13 | 0.0 | 0.0 | 0.00 | 0.00 | 0.00 | 40 | 1012.3 | |
| 20260505150106 | 13 | 0.0 | 0.0 | 0.00 | 0.00 | 0.00 | 38 | 1012.1 | |
| 20260505130111 | 14 | 0.0 | 0.0 | 0.00 | 0.00 | 0.00 | 47 | 1012.2 | |
| 20260505124554 | 14 | 0.0 | 0.0 | 0.00 | 0.00 | 0.00 | 50 | 1012.4 | |
| 20260505123103 | 15 | 0.0 | 0.0 | 0.00 | 0.00 | 0.00 | 52 | 1012.5 | |
| 20260505121553 | 13 | 0.0 | 0.0 | 0.00 | 0.00 | 0.00 | 62 | 1012.5 | |
| 20260505120104 | 13 | 0.0 | 0.0 | 0.00 | 0.00 | 0.00 | 63 | 1012.3 | |
| 20260505114555 | 13 | 0.0 | 0.0 | 0.00 | 0.00 | 0.00 | 63 | 1012.4 | |
| 20260505113050 | 14 | 0.0 | 0.0 | 0.00 | 0.00 | 0.00 | 60 | 1012.4 | |
| 20260505111552 | 13 | 0.0 | 0.0 | 0.00 | 0.00 | 0.00 | 57 | 1012.4 | |
| 20260505101559 | 13 | 0.0 | 0.0 | 0.00 | 0.00 | 0.00 | 61 | 1012.8 | |
| 20260505100050 | 13 | 0.0 | 0.0 | 0.00 | 0.00 | 0.00 | 61 | 1012.8 | |
| 20260505094607 | 13 | 0.0 | 0.0 | 0.00 | 0.00 | 0.00 | 63 | 1013.0 | |
| 20260505093100 | 13 | 0.0 | 0.0 | 0.00 | 0.00 | 0.00 | 62 | 1013.0 | |
| 20260505091559 | 12 | 0.0 | 0.0 | 0.00 | 0.00 | 0.00 | 66 | 1013.1 | |
| 20260505090058 | 12 | 0.0 | 0.0 | 0.00 | 0.00 | 0.00 | 66 | 1013.0 | |
| 20260505084555 | 12 | 0.0 | 0.0 | 0.00 | 0.00 | 0.00 | 66 | 1013.0 | |
| 20260505083102 | 12 | 0.0 | 0.0 | 0.00 | 0.00 | 0.00 | 66 | 1013.1 | |
| 20260505081557 | 12 | 0.0 | 0.0 | 0.00 | 0.00 | 0.00 | 66 | 1013.0 | |
| 20260505080052 | 12 | 0.0 | 0.0 | 0.00 | 0.00 | 0.00 | 69 | 1013.0 | |
| 20260505074548 | 12 | 0.0 | 0.0 | 0.00 | 0.00 | 0.00 | 68 | 1012.9 | |
| 20260505073054 | 12 | 0.0 | 0.0 | 0.00 | 0.00 | 0.00 | 67 | 1013.0 | |
| 20260505071552 | 11 | 0.0 | 0.0 | 0.00 | 0.00 | 0.00 | 71 | 1012.9 | |
| 20260505070058 | 11 | 0.0 | 0.0 | 0.00 | 0.00 | 0.00 | 76 | 1012.8 | |
| 20260505064555 | 10 | 0.0 | 0.0 | 0.00 | 0.00 | 0.00 | 80 | 1012.7 | |
| 20260505063055 | 10 | 0.0 | 0.0 | 0.00 | 0.00 | 0.00 | 80 | 1012.7 | |
| 20260505061601 | 9 | 0.0 | 0.0 | 0.00 | 0.00 | 0.00 | 83 | 1012.6 | |
| 20260505060055 | 9 | 0.0 | 0.0 | 0.00 | 0.00 | 0.00 | 83 | 1012.5 | |
| 20260505054556 | 8 | 0.0 | 0.0 | 0.00 | 0.00 | 0.00 | 86 | 1012.7 | |
| 20260505053053 | 8 | 0.0 | 0.0 | 0.00 | 0.00 | 0.00 | 86 | 1012.7 | |
| 20260505051552 | 8 | 0.0 | 0.0 | 0.00 | 0.00 | 0.00 | 87 | 1012.6 | |
| 20260505041553 | 7 | 0.0 | 0.0 | 0.00 | 0.00 | 0.00 | 90 | 1012.5 | |
| 20260505040104 | 6 | 0.0 | 0.0 | 0.00 | 0.00 | 0.00 | 90 | 1012.6 | |
| 20260505034552 | 6 | 0.0 | 0.0 | 0.00 | 0.00 | 0.00 | 90 | 1012.6 | |
| 20260505033048 | 6 | 0.0 | 0.0 | 0.00 | 0.00 | 0.00 | 90 | 1012.7 | |
| 20260505031557 | 6 | 0.0 | 0.0 | 0.00 | 0.00 | 0.00 | 90 | 1012.5 | |
| 20260505030058 | 6 | 0.0 | 0.0 | 0.00 | 0.00 | 0.00 | 90 | 1012.5 | |
| 20260505024553 | 6 | 0.0 | 0.0 | 0.00 | 0.00 | 0.00 | 90 | 1012.4 | |
| 20260505023051 | 6 | 0.0 | 0.0 | 0.00 | 0.00 | 0.00 | 89 | 1012.5 | |
| 20260505021549 | 6 | 0.0 | 0.0 | 0.00 | 0.00 | 0.00 | 89 | 1012.5 | |
| 20260505020051 | 6 | 0.0 | 0.0 | 0.00 | 0.00 | 0.00 | 89 | 1012.6 | |
| 20260505014604 | 6 | 0.0 | 0.0 | 0.00 | 0.00 | 0.00 | 89 | 1012.7 | |
| 20260505013051 | 6 | 0.0 | 0.0 | 0.00 | 0.00 | 0.00 | 89 | 1012.8 | |
| 20260505011554 | 6 | 0.0 | 0.0 | 0.00 | 0.00 | 0.00 | 88 | 1012.9 | |
| 20260505010056 | 6 | 0.0 | 0.0 | 0.00 | 0.00 | 0.00 | 88 | 1012.8 | |
| 20260505004556 | 6 | 0.0 | 0.0 | 0.00 | 0.15 | 0.00 | 88 | 1012.8 | |
| 20260505003054 | 6 | 0.0 | 0.0 | 0.00 | 0.15 | 0.00 | 88 | 1013.0 | |
| 20260505001553 | 6 | 0.0 | 0.0 | 0.00 | 0.15 | 0.00 | 87 | 1012.9 | |
| 20260505000055 | 7 | 0.0 | 0.0 | 0.00 | 0.15 | 0.00 | 87 | 1012.9 | |
| 20260504234551 | 7 | 0.0 | 0.0 | 0.00 | 0.23 | 0.00 | 86 | 1013.0 | |
| 20260504233052 | 7 | 0.0 | 0.0 | 0.00 | 0.23 | 0.00 | 86 | 1013.0 | |
| 20260504231549 | 7 | 0.0 | 0.0 | 0.00 | 0.23 | 0.00 | 86 | 1012.9 | |
| 20260504230052 | 7 | 0.0 | 0.0 | 0.00 | 0.23 | 0.00 | 85 | 1013.0 | |
| 20260504224552 | 7 | 0.0 | 0.0 | 0.00 | 0.51 | 0.00 | 84 | 1013.2 | |
| 20260504223050 | 7 | 0.0 | 0.0 | 0.00 | 0.51 | 0.00 | 83 | 1013.1 | |
| 20260504221553 | 7 | 0.0 | 0.0 | 0.00 | 0.51 | 0.00 | 82 | 1013.0 | |
| 20260504220052 | 8 | 0.0 | 0.0 | 0.00 | 0.51 | 0.00 | 81 | 1013.1 | |
| 20260504214558 | 8 | 0.0 | 0.0 | 0.00 | 1.12 | 0.51 | 81 | 1013.2 | |
| 20260504213050 | 8 | 0.0 | 0.0 | 0.00 | 1.12 | 0.51 | 80 | 1013.3 | |
| 20260504211552 | 8 | 0.0 | 0.0 | 0.00 | 1.12 | 0.51 | 78 | 1013.2 | |
| 20260504210104 | 9 | 0.0 | 0.0 | 0.00 | 1.12 | 0.51 | 76 | 1013.3 | |
| 20260504204611 | 10 | 0.0 | 0.0 | 0.00 | 1.22 | 0.51 | 74 | 1013.2 | |
| 20260504203124 | 10 | 0.0 | 0.0 | 0.00 | 1.22 | 0.51 | 72 | 1013.1 | |
| 20260504201553 | 10 | 0.0 | 0.0 | 0.00 | 1.22 | 0.51 | 71 | 1013.0 | |
| 20260504200058 | 11 | 0.0 | 0.0 | 0.00 | 1.22 | 0.51 | 70 | 1013.1 | |
| 20260504194556 | 11 | 0.0 | 0.0 | 0.00 | 1.22 | 0.51 | 69 | 1013.0 | |
| 20260504193058 | 11 | 0.0 | 0.0 | 0.00 | 1.22 | 0.51 | 67 | 1013.0 | |
| 20260504191558 | 12 | 0.0 | 0.0 | 0.00 | 1.22 | 0.51 | 66 | 1012.9 | |
| 20260504190054 | 12 | 0.0 | 0.0 | 0.00 | 1.22 | 0.51 | 65 | 1012.9 | |
| 20260504184556 | 12 | 0.0 | 0.0 | 0.00 | 1.22 | 0.51 | 64 | 1012.7 | |
| 20260504183103 | 12 | 0.0 | 0.0 | 0.00 | 1.22 | 0.51 | 62 | 1012.7 | |
| 20260504181603 | 13 | 0.0 | 0.0 | 0.00 | 1.22 | 0.51 | 60 | 1012.7 | |
| 20260504180117 | 13 | 0.0 | 0.0 | 0.00 | 1.22 | 0.51 | 57 | 1012.5 | |
| 20260504174555 | 13 | 0.0 | 0.0 | 0.00 | 1.22 | 0.51 | 55 | 1012.5 |